Weather History for Plymouth, NH

Change the Weather History Date:

Tuesday, December 18, 2012

  Actual Average (KLCI) Record (KLCI)
Temperature  
Mean Temperature 36 °F -  
Max Temperature 39 °F 36 °F 54 °F (1984)
Min Temperature 33 °F 20 °F 2 °F (1991)
Degree Days  
Heating Degree Days 29    
Moisture  
Dew Point 36 °F    
Average Humidity 96    
Maximum Humidity 100    
Minimum Humidity 87    
Precipitation  
Precipitation 0.44 in - - ()
Sea Level Pressure  
Sea Level Pressure 29.56 in    
Wind  
Wind Speed 4 mph (SSE)    
Max Wind Speed 12 mph    
Max Gust Speed 20 mph    
Visibility 6 miles    
Events Rain    
Averages and records for this station are not official NWS values.
T = Trace of Precipitation, MM = Missing Value Source: NWS Daily Summary

Daily Weather History Graph

Daily Weather History Graph

Search for Another Location

Airport:

Trip Planner

Search our weather history database for the weather conditions in past years. The results will help you decide how hot, cold, wet, or windy it might be!

Date:

Astronomy

Dec. 18, 2012 Rise Set
Actual Time 7:16 AM EST 4:11 PM EST
Civil Twilight 6:43 AM EST 4:44 PM EST
Nautical Twilight 6:06 AM EST 5:20 PM EST
Astronomical Twilight 5:31 AM EST 5:55 PM EST
Moon 10:44 AM EST (12/18) 10:45 PM EST (12/18)
Length of Visible Light 10h 01m
Length of Day
8h 55m
Waxing Crescent, 34% of the Moon is Illuminated
Dec 18
Waxing Crescent
Dec 20
First Quarter
Dec 28
Full
Jan 4
Last Quarter
Jan 11
New

Hourly Weather History & Observations

Time (EST) Temp. Windchill Dew Point Humidity Pressure Visibility Wind Dir Wind Speed Gust Speed Precip Events Conditions
12:15 AM 33.1 °F 30.0 °F 32.7 °F 99% 29.86 in 4.0 mi SSE 3.5 mph - N/A   Overcast
12:35 AM 33.6 °F 30.6 °F 32.9 °F 97% 29.84 in 7.0 mi SE 3.5 mph - N/A   Overcast
12:55 AM 33.6 °F 29.4 °F 32.9 °F 97% 29.83 in 10.0 mi SSE 4.6 mph - N/A   Overcast
1:15 AM 33.8 °F 29.6 °F 32.9 °F 96% 29.82 in 10.0 mi SSE 4.6 mph - N/A   Light Drizzle
1:35 AM 34.0 °F 31.0 °F 32.9 °F 96% 29.80 in 10.0 mi ESE 3.5 mph - N/A   Overcast
1:55 AM 34.7 °F 31.8 °F 33.1 °F 94% 29.79 in 10.0 mi SE 3.5 mph - N/A   Overcast
2:15 AM 34.2 °F 30.0 °F 33.1 °F 96% 29.78 in 10.0 mi SSE 4.6 mph - N/A Rain Rain
2:35 AM 34.3 °F 29.2 °F 33.3 °F 96% 29.76 in 10.0 mi SE 5.8 mph - N/A   Light Drizzle
2:55 AM 34.7 °F 30.6 °F 33.3 °F 94% 29.75 in 7.0 mi SSE 4.6 mph - N/A Rain Rain
3:15 AM 34.7 °F 31.8 °F 33.6 °F 96% 29.74 in 7.0 mi SSE 3.5 mph - N/A   Drizzle
3:35 AM 34.9 °F 32.0 °F 33.8 °F 96% 29.73 in 7.0 mi SE 3.5 mph - N/A Rain Light Rain
3:55 AM 34.9 °F 32.0 °F 33.8 °F 96% 29.72 in 10.0 mi SE 3.5 mph - N/A Rain Light Rain
4:15 AM 35.1 °F 31.0 °F 34.0 °F 96% 29.71 in 5.0 mi SE 4.6 mph - 0.01 in Rain Rain
4:35 AM 34.7 °F 31.8 °F 33.6 °F 96% 29.71 in 5.0 mi SSE 3.5 mph - 0.02 in Rain Light Rain
4:55 AM 34.9 °F 29.9 °F 34.0 °F 97% 29.69 in 7.0 mi SE 5.8 mph - 0.03 in Rain Light Rain
5:15 AM 35.8 °F 29.4 °F 34.3 °F 94% 29.67 in 7.0 mi ESE 8.1 mph - 0.01 in Rain Rain
5:35 AM 36.3 °F 28.9 °F 34.2 °F 92% 29.66 in 10.0 mi East 10.4 mph 16.1 mph 0.01 in Rain Light Rain
5:55 AM 37.4 °F 29.8 °F 34.7 °F 90% 29.65 in 7.0 mi East 11.5 mph 19.6 mph 0.01 in Rain Light Rain
6:15 AM 37.8 °F 30.7 °F 34.3 °F 87% 29.65 in 7.0 mi East 10.4 mph 18.4 mph 0.01 in Rain Light Rain
6:35 AM 35.8 °F - 34.2 °F 94% 29.65 in 5.0 mi Calm Calm - 0.02 in Rain Rain
6:55 AM 35.8 °F - 34.7 °F 96% 29.65 in 4.0 mi Calm Calm - 0.04 in Rain Rain
7:15 AM 35.6 °F 31.7 °F 34.7 °F 97% 29.65 in 3.0 mi SE 4.6 mph - 0.02 in Rain Rain
7:35 AM 35.8 °F 31.9 °F 35.1 °F 97% 29.64 in 2.5 mi SE 4.6 mph - 0.06 in Rain Light Rain
7:55 AM 35.8 °F 33.0 °F 35.2 °F 98% 29.64 in 3.0 mi SSE 3.5 mph - 0.08 in Rain Rain
8:15 AM 36.1 °F 32.3 °F 34.9 °F 95% 29.63 in 2.5 mi SE 4.6 mph - 0.05 in Rain Rain
8:35 AM 37.4 °F 32.1 °F 35.1 °F 91% 29.62 in 4.0 mi East 6.9 mph - 0.08 in Rain Rain
8:55 AM 37.6 °F 33.1 °F 35.2 °F 91% 29.61 in 5.0 mi ESE 5.8 mph - 0.10 in Rain Light Rain
9:15 AM 38.3 °F 34.8 °F 35.4 °F 89% 29.60 in 10.0 mi ESE 4.6 mph - N/A Rain Light Rain
9:35 AM 38.3 °F 33.9 °F 35.6 °F 90% 29.59 in 10.0 mi ESE 5.8 mph - N/A   Light Drizzle
9:55 AM 38.1 °F 31.2 °F 35.8 °F 91% 29.58 in 10.0 mi East 10.4 mph - N/A   Drizzle
10:15 AM 38.7 °F 35.2 °F 35.8 °F 89% 29.57 in 7.0 mi ESE 4.6 mph - N/A Rain Light Rain
10:35 AM 38.7 °F 36.3 °F 36.1 °F 91% 29.56 in 7.0 mi SSE 3.5 mph - N/A Rain Rain
10:55 AM 37.6 °F 35.1 °F 36.0 °F 94% 29.55 in 7.0 mi SE 3.5 mph - N/A Rain Rain
11:15 AM 38.5 °F 36.1 °F 37.0 °F 95% 29.53 in 3.0 mi SE 3.5 mph - 0.01 in Rain Light Rain
11:35 AM 38.3 °F 35.9 °F 36.9 °F 95% 29.53 in 7.0 mi SSE 3.5 mph - 0.02 in Rain Light Rain
11:55 AM 38.5 °F - 36.9 °F 94% 29.51 in 4.0 mi Calm Calm - 0.02 in   Light Drizzle
12:15 PM 38.5 °F 36.1 °F 37.6 °F 97% 29.50 in 7.0 mi ESE 3.5 mph - N/A   Overcast
12:35 PM 38.3 °F 35.9 °F 37.0 °F 95% 29.49 in 4.0 mi SSE 3.5 mph - N/A Rain Rain
12:55 PM 38.5 °F 36.1 °F 37.6 °F 97% 29.48 in 2.5 mi SE 3.5 mph - 0.03 in Rain Rain
1:15 PM 38.7 °F 36.3 °F 37.8 °F 97% 29.47 in 5.0 mi SE 3.5 mph - 0.02 in Rain Light Rain
1:35 PM 39.2 °F - 37.8 °F 95% 29.46 in 10.0 mi Calm Calm - 0.02 in Rain Rain
1:55 PM 39.4 °F - 38.3 °F 96% 29.46 in 5.0 mi Calm Calm - 0.02 in   Light Drizzle
2:15 PM 39.4 °F - 38.3 °F 96% 29.45 in 4.0 mi Calm Calm - N/A   Overcast
2:35 PM 39.6 °F 37.4 °F 38.5 °F 96% 29.45 in 4.0 mi South 3.5 mph - N/A Rain Light Rain
2:55 PM 39.2 °F - 38.1 °F 96% 29.45 in 5.0 mi Calm Calm - N/A   Overcast
3:15 PM 39.0 °F - 38.1 °F 97% 29.45 in 4.0 mi Calm Calm - N/A   Drizzle
3:35 PM 38.8 °F 36.5 °F 38.1 °F 97% 29.45 in 2.5 mi SSW 3.5 mph - N/A Rain Rain
3:55 PM 37.4 °F 34.9 °F 36.7 °F 97% 29.45 in 1.0 mi SSW 3.5 mph - 0.01 in Rain Light Rain
4:15 PM 37.8 °F 35.3 °F 37.4 °F 99% 29.44 in 2.5 mi South 3.5 mph - N/A Rain Rain
4:35 PM 38.1 °F - 37.8 °F 99% 29.44 in 4.0 mi Calm Calm - 0.02 in Rain Rain
4:55 PM 38.5 °F - 38.3 °F 99% 29.44 in 3.0 mi Calm Calm - 0.04 in Rain Light Rain
5:15 PM 37.9 °F 35.5 °F 37.8 °F 99% 29.44 in 3.0 mi South 3.5 mph - 0.01 in Rain Light Rain
5:35 PM 38.5 °F 36.1 °F 38.3 °F 99% 29.44 in 3.0 mi South 3.5 mph - 0.02 in Rain Light Rain
5:55 PM 37.9 °F 35.5 °F 37.6 °F 99% 29.44 in 5.0 mi South 3.5 mph - 0.02 in Rain Rain
6:15 PM 37.9 °F - 37.6 °F 99% 29.44 in 7.0 mi Calm Calm - N/A   Drizzle
6:35 PM 35.8 °F - 35.8 °F 100% 29.44 in 1.2 mi Calm Calm - N/A Rain Rain
6:55 PM 36.5 °F 33.9 °F 36.5 °F 100% 29.45 in 1.2 mi WNW 3.5 mph - N/A   Drizzle
7:15 PM 36.1 °F 33.5 °F 36.0 °F 99% 29.45 in 1.0 mi WNW 3.5 mph - 0.01 in   Drizzle
7:35 PM 36.9 °F - 36.7 °F 99% 29.44 in 1.5 mi Calm Calm - 0.01 in   Drizzle
7:55 PM 36.0 °F - 36.0 °F 100% 29.44 in 0.8 mi Calm Calm - 0.01 in   Drizzle
8:15 PM 36.0 °F - 36.0 °F 100% 29.44 in 1.2 mi Calm Calm - 0.02 in Rain Light Rain
8:35 PM 36.7 °F - 36.7 °F 100% 29.44 in 3.0 mi Calm Calm - 0.03 in   Drizzle
8:55 PM 37.9 °F 33.5 °F 37.9 °F 100% 29.44 in 5.0 mi WNW 5.8 mph - 0.03 in   Light Drizzle
9:15 PM 38.5 °F 34.1 °F 38.5 °F 100% 29.44 in 7.0 mi West 5.8 mph - N/A   Light Drizzle
9:35 PM 38.7 °F 36.3 °F 38.5 °F 99% 29.44 in 5.0 mi WNW 3.5 mph - N/A Rain Rain
9:55 PM 38.5 °F 35.0 °F 38.3 °F 99% 29.44 in 7.0 mi WNW 4.6 mph - N/A Rain Light Rain
10:15 PM 38.1 °F 33.7 °F 37.4 °F 97% 29.44 in 10.0 mi NW 5.8 mph - N/A   Light Drizzle
10:35 PM 38.3 °F 33.9 °F 37.4 °F 97% 29.44 in 10.0 mi NW 5.8 mph - N/A   Overcast
10:55 PM 37.9 °F 33.5 °F 36.7 °F 95% 29.44 in 10.0 mi WNW 5.8 mph - N/A   Overcast
11:15 PM 38.5 °F 33.4 °F 36.7 °F 93% 29.44 in 10.0 mi WNW 6.9 mph - N/A   Overcast
11:35 PM 38.3 °F 34.8 °F 36.5 °F 93% 29.44 in 7.0 mi WNW 4.6 mph - N/A Rain Rain
11:55 PM 37.9 °F 33.5 °F 36.5 °F 95% 29.44 in 10.0 mi WNW 5.8 mph - N/A Rain Light Rain